Time,TemperatureF,DewpointF,PressureIn,WindDirection,WindDirectionDegrees,WindSpeedMPH,WindSpeedGustMPH,Humidity,HourlyPrecipIn,Conditions,Clouds,dailyrainin,SoftwareType,DateUTC
2013-11-13 00:04:00,38.1,30.2,30.56,NNE,22,4.7,-999.0,73,-99.99,,,0.00,Acu-Link.com,2013-11-13 06:04:00,
2013-11-13 00:20:00,37.6,30.7,30.57,NNE,22,3.8,-999.0,76,-99.99,,,0.00,Acu-Link.com,2013-11-13 06:20:00,
2013-11-13 00:35:00,37.0,30.8,30.57,NNE,22,4.7,-999.0,78,-99.99,,,0.00,Acu-Link.com,2013-11-13 06:35:00,
2013-11-13 00:50:00,36.5,30.6,30.57,NE,45,3.8,-999.0,79,-99.99,,,0.00,Acu-Link.com,2013-11-13 06:50:00,
2013-11-13 01:06:00,36.3,30.4,30.56,NNE,22,5.1,-999.0,79,-99.99,,,0.00,Acu-Link.com,2013-11-13 07:06:00,
2013-11-13 01:21:00,36.1,30.3,30.57,NNW,337,3.1,-999.0,79,-99.99,,,0.00,Acu-Link.com,2013-11-13 07:21:00,
2013-11-13 01:36:00,35.8,29.9,30.56,NE,45,3.1,-999.0,79,-99.99,,,0.00,Acu-Link.com,2013-11-13 07:36:00,
2013-11-13 01:51:00,35.2,29.7,30.57,NE,45,4.3,-999.0,80,-99.99,,,0.00,Acu-Link.com,2013-11-13 07:51:00,
2013-11-13 02:07:00,35.1,29.5,30.56,NE,45,3.8,-999.0,80,-99.99,,,0.00,Acu-Link.com,2013-11-13 08:07:00,
2013-11-13 02:22:00,34.9,29.3,30.56,NNE,22,4.7,-999.0,80,-99.99,,,0.00,Acu-Link.com,2013-11-13 08:22:00,
2013-11-13 02:37:00,34.7,28.9,30.56,ENE,67,4.7,-999.0,79,-99.99,,,0.00,Acu-Link.com,2013-11-13 08:37:00,
2013-11-13 02:52:00,34.5,28.7,30.56,NE,45,4.7,-999.0,79,-99.99,,,0.00,Acu-Link.com,2013-11-13 08:52:00,
2013-11-13 03:08:00,34.2,28.3,30.56,ENE,67,4.3,-999.0,79,-99.99,,,0.00,Acu-Link.com,2013-11-13 09:08:00,
2013-11-13 03:23:00,34.0,28.5,30.56,NE,45,3.8,-999.0,80,-99.99,,,0.00,Acu-Link.com,2013-11-13 09:23:00,
2013-11-13 03:38:00,33.8,28.3,30.57,NNE,22,4.3,-999.0,80,-99.99,,,0.00,Acu-Link.com,2013-11-13 09:38:00,
2013-11-13 03:53:00,33.6,28.1,30.56,NNE,22,4.7,-999.0,80,-99.99,,,0.00,Acu-Link.com,2013-11-13 09:53:00,
2013-11-13 04:09:00,33.4,28.2,30.57,NNE,22,4.3,-999.0,81,-99.99,,,0.00,Acu-Link.com,2013-11-13 10:09:00,
2013-11-13 04:24:00,33.3,28.1,30.57,NE,45,5.1,-999.0,81,-99.99,,,0.00,Acu-Link.com,2013-11-13 10:24:00,
2013-11-13 04:39:00,33.3,28.1,30.57,ENE,67,5.1,-999.0,81,-99.99,,,0.00,Acu-Link.com,2013-11-13 10:39:00,
2013-11-13 04:54:00,32.9,27.7,30.58,NW,315,5.8,-999.0,81,-99.99,,,0.00,Acu-Link.com,2013-11-13 10:54:00,
2013-11-13 05:09:00,32.7,27.5,30.57,NE,45,4.7,-999.0,81,-99.99,,,0.00,Acu-Link.com,2013-11-13 11:09:00,
2013-11-13 05:24:00,32.5,27.7,30.57,NNE,22,4.7,-999.0,82,-99.99,,,0.00,Acu-Link.com,2013-11-13 11:24:00,
2013-11-13 05:40:00,32.4,27.5,30.57,NNE,22,5.8,-999.0,82,-99.99,,,0.00,Acu-Link.com,2013-11-13 11:40:00,
2013-11-13 05:55:00,32.2,27.6,30.58,NE,45,5.1,-999.0,83,-99.99,,,0.00,Acu-Link.com,2013-11-13 11:55:00,
2013-11-13 06:26:00,31.6,27.4,30.58,NNE,22,5.8,-999.0,84,-99.99,,,0.00,Acu-Link.com,2013-11-13 12:26:00,
2013-11-13 06:41:00,31.5,27.2,30.58,NNW,337,3.8,-999.0,84,-99.99,,,0.00,Acu-Link.com,2013-11-13 12:41:00,
2013-11-13 06:56:00,31.5,27.2,30.58,North,0,4.3,-999.0,84,-99.99,,,0.00,Acu-Link.com,2013-11-13 12:56:00,
2013-11-13 07:11:00,32.2,27.6,30.58,NNE,22,3.8,-999.0,83,-99.99,,,0.00,Acu-Link.com,2013-11-13 13:11:00,
2013-11-13 07:27:00,35.1,28.3,30.59,NE,45,4.3,-999.0,76,-99.99,,,0.00,Acu-Link.com,2013-11-13 13:27:00,
2013-11-13 07:42:00,37.4,28.5,30.59,NNE,22,4.7,-999.0,70,-99.99,,,0.00,Acu-Link.com,2013-11-13 13:42:00,
2013-11-13 07:57:00,39.6,29.2,30.59,NNE,22,2.7,-999.0,66,-99.99,,,0.00,Acu-Link.com,2013-11-13 13:57:00,
2013-11-13 08:13:00,41.2,29.2,30.60,NE,45,3.8,-999.0,62,-99.99,,,0.00,Acu-Link.com,2013-11-13 14:13:00,
2013-11-13 08:28:00,39.2,28.1,30.60,SE,135,3.1,-999.0,64,-99.99,,,0.00,Acu-Link.com,2013-11-13 14:28:00,
2013-11-13 08:43:00,40.6,28.3,30.60,NNE,22,3.1,-999.0,61,-99.99,,,0.00,Acu-Link.com,2013-11-13 14:43:00,
2013-11-13 08:59:00,40.6,27.9,30.60,ENE,67,6.7,-999.0,60,-99.99,,,0.00,Acu-Link.com,2013-11-13 14:59:00,
2013-11-13 09:14:00,41.9,28.2,30.60,ESE,112,3.8,-999.0,58,-99.99,,,0.00,Acu-Link.com,2013-11-13 15:14:00,
2013-11-13 09:29:00,42.4,27.4,30.59,North,0,5.8,-999.0,55,-99.99,,,0.00,Acu-Link.com,2013-11-13 15:29:00,
2013-11-13 09:44:00,44.4,28.8,30.59,NE,45,2.7,-999.0,54,-99.99,,,0.00,Acu-Link.com,2013-11-13 15:44:00,
2013-11-13 10:00:00,44.6,27.1,30.59,NE,45,3.8,-999.0,50,-99.99,,,0.19,Acu-Link.com,2013-11-13 16:00:00,
2013-11-13 10:15:00,45.5,27.5,30.58,NNE,22,4.3,-999.0,49,-99.99,,,0.19,Acu-Link.com,2013-11-13 16:15:00,
2013-11-13 10:30:00,46.6,26.9,30.58,NE,45,5.1,-999.0,46,-99.99,,,0.19,Acu-Link.com,2013-11-13 16:30:00,
2013-11-13 10:46:00,48.2,28.9,30.58,ENE,67,2.7,-999.0,47,-99.99,,,0.19,Acu-Link.com,2013-11-13 16:46:00,
2013-11-13 11:01:00,48.2,27.3,30.57,NNE,22,5.1,-999.0,44,-99.99,,,0.19,Acu-Link.com,2013-11-13 17:01:00,
2013-11-13 11:16:00,49.6,27.5,30.56,North,0,4.7,-999.0,42,-99.99,,,0.19,Acu-Link.com,2013-11-13 17:16:00,
2013-11-13 11:32:00,50.4,27.6,30.55,ESE,112,3.1,-999.0,41,-99.99,,,0.19,Acu-Link.com,2013-11-13 17:32:00,
2013-11-13 11:47:00,51.4,27.9,30.54,NE,45,4.7,-999.0,40,-99.99,,,0.19,Acu-Link.com,2013-11-13 17:47:00,
2013-11-13 12:02:00,52.3,28.1,30.53,NE,45,3.8,-999.0,39,-99.99,,,0.19,Acu-Link.com,2013-11-13 18:02:00,
2013-11-13 12:17:00,53.2,28.9,30.52,NE,45,6.3,-999.0,39,-99.99,,,0.19,Acu-Link.com,2013-11-13 18:17:00,
2013-11-13 12:32:00,53.4,28.5,30.51,NE,45,5.1,-999.0,38,-99.99,,,0.19,Acu-Link.com,2013-11-13 18:32:00,
2013-11-13 12:48:00,53.6,27.3,30.50,NE,45,5.1,-999.0,36,-99.99,,,0.19,Acu-Link.com,2013-11-13 18:48:00,
2013-11-13 13:03:00,54.1,28.4,30.48,NNE,22,6.3,-999.0,37,-99.99,,,0.19,Acu-Link.com,2013-11-13 19:03:00,
2013-11-13 13:18:00,55.6,27.7,30.48,West,270,4.3,-999.0,34,-99.99,,,0.19,Acu-Link.com,2013-11-13 19:18:00,
2013-11-13 13:34:00,55.2,29.4,30.48,WNW,292,4.3,-999.0,37,-99.99,,,0.19,Acu-Link.com,2013-11-13 19:34:00,
2013-11-13 13:49:00,55.9,31.3,30.48,NNE,22,4.3,-999.0,39,-99.99,,,0.19,Acu-Link.com,2013-11-13 19:49:00,
2013-11-13 14:04:00,55.0,29.2,30.47,North,0,3.8,-999.0,37,-99.99,,,0.19,Acu-Link.com,2013-11-13 20:04:00,
2013-11-13 14:19:00,54.7,26.9,30.46,NNE,22,4.7,-999.0,34,-99.99,,,0.19,Acu-Link.com,2013-11-13 20:19:00,
2013-11-13 14:34:00,54.3,25.1,30.47,NNE,22,5.8,-999.0,32,-99.99,,,0.19,Acu-Link.com,2013-11-13 20:34:00,
2013-11-13 14:49:00,55.4,28.9,30.47,NE,45,2.7,-999.0,36,-99.99,,,0.19,Acu-Link.com,2013-11-13 20:49:00,
2013-11-13 15:04:00,55.8,29.9,30.46,East,90,1.6,-999.0,37,-99.99,,,0.19,Acu-Link.com,2013-11-13 21:04:00,
2013-11-13 15:20:00,54.3,27.9,30.46,NNE,22,3.8,-999.0,36,-99.99,,,0.19,Acu-Link.com,2013-11-13 21:20:00,
2013-11-13 15:35:00,55.0,29.9,30.46,ESE,112,3.1,-999.0,38,-99.99,,,0.19,Acu-Link.com,2013-11-13 21:35:00,
2013-11-13 15:50:00,54.5,29.4,30.46,ESE,112,2.7,-999.0,38,-99.99,,,0.19,Acu-Link.com,2013-11-13 21:50:00,
2013-11-13 16:06:00,53.1,30.6,30.46,NNE,22,2.2,-999.0,42,-99.99,,,0.19,Acu-Link.com,2013-11-13 22:06:00,
2013-11-13 16:21:00,52.7,28.4,30.45,NE,45,3.1,-999.0,39,-99.99,,,0.19,Acu-Link.com,2013-11-13 22:21:00,
2013-11-13 16:36:00,51.6,30.4,30.45,East,90,0.0,-999.0,44,-99.99,,,0.19,Acu-Link.com,2013-11-13 22:36:00,
2013-11-13 16:52:00,50.2,31.3,30.45,NNE,22,1.6,-999.0,48,-99.99,,,0.19,Acu-Link.com,2013-11-13 22:52:00,
2013-11-13 17:07:00,50.2,31.8,30.45,North,0,0.0,-999.0,49,-99.99,,,0.19,Acu-Link.com,2013-11-13 23:07:00,
2013-11-13 17:22:00,47.7,31.4,30.44,NNE,22,1.6,-999.0,53,-99.99,,,0.19,Acu-Link.com,2013-11-13 23:22:00,
2013-11-13 17:37:00,45.9,31.5,30.45,NE,45,1.6,-999.0,57,-99.99,,,0.19,Acu-Link.com,2013-11-13 23:37:00,
2013-11-13 17:53:00,44.4,31.0,30.46,NNE,22,0.0,-999.0,59,-99.99,,,0.19,Acu-Link.com,2013-11-13 23:53:00,
2013-11-13 18:08:00,43.0,31.3,30.45,NNE,22,0.0,-999.0,63,-99.99,,,0.19,Acu-Link.com,2013-11-14 00:08:00,
2013-11-13 18:23:00,42.6,31.3,30.46,NE,45,0.0,-999.0,64,-99.99,,,0.19,Acu-Link.com,2013-11-14 00:23:00,
2013-11-13 18:39:00,41.4,31.6,30.46,NW,315,0.0,-999.0,68,-99.99,,,0.19,Acu-Link.com,2013-11-14 00:39:00,
2013-11-13 18:54:00,39.9,31.3,30.46,NW,315,0.0,-999.0,71,-99.99,,,0.19,Acu-Link.com,2013-11-14 00:54:00,
2013-11-13 19:09:00,40.1,30.8,30.45,NNW,337,1.6,-999.0,69,-99.99,,,0.19,Acu-Link.com,2013-11-14 01:09:00,
2013-11-13 19:24:00,40.6,30.6,30.46,NNE,22,2.2,-999.0,67,-99.99,,,0.19,Acu-Link.com,2013-11-14 01:24:00,
2013-11-13 19:40:00,40.8,30.7,30.46,NNE,22,2.2,-999.0,67,-99.99,,,0.19,Acu-Link.com,2013-11-14 01:40:00,
2013-11-13 19:55:00,40.6,30.6,30.46,NNE,22,2.7,-999.0,67,-99.99,,,0.19,Acu-Link.com,2013-11-14 01:55:00,
2013-11-13 20:10:00,40.5,30.4,30.46,NE,45,2.2,-999.0,67,-99.99,,,0.19,Acu-Link.com,2013-11-14 02:10:00,
2013-11-13 20:25:00,39.9,30.2,30.45,NE,45,2.7,-999.0,68,-99.99,,,0.19,Acu-Link.com,2013-11-14 02:25:00,
2013-11-13 20:41:00,39.4,30.8,30.45,NE,45,1.6,-999.0,71,-99.99,,,0.19,Acu-Link.com,2013-11-14 02:41:00,
2013-11-13 20:56:00,39.2,30.6,30.45,NNE,22,3.1,-999.0,71,-99.99,,,0.19,Acu-Link.com,2013-11-14 02:56:00,
2013-11-13 21:11:00,39.6,30.6,30.45,NE,45,3.1,-999.0,70,-99.99,,,0.19,Acu-Link.com,2013-11-14 03:11:00,
2013-11-13 21:27:00,39.4,30.1,30.44,NNE,22,3.1,-999.0,69,-99.99,,,0.19,Acu-Link.com,2013-11-14 03:27:00,
2013-11-13 21:42:00,38.8,30.3,30.43,NNE,22,2.2,-999.0,71,-99.99,,,0.19,Acu-Link.com,2013-11-14 03:42:00,
2013-11-13 21:57:00,37.9,30.1,30.44,ESE,112,0.0,-999.0,73,-99.99,,,0.19,Acu-Link.com,2013-11-14 03:57:00,
2013-11-13 22:13:00,36.0,30.7,30.45,East,90,0.0,-999.0,81,-99.99,,,0.19,Acu-Link.com,2013-11-14 04:13:00,
2013-11-13 22:28:00,34.9,30.5,30.44,North,0,0.0,-999.0,84,-99.99,,,0.19,Acu-Link.com,2013-11-14 04:28:00,